BANGABANDHUSAT-1 (43463 NORAD) Tracking and Keplerian Element Data

This shows tracking and keplerian element data for the satellite.

Feedback or suggestion? Click here.




ElementValue
Catalog43463
NameBANGABANDHUSAT-1
Epoch Orbit1244
Epoch Day270.00248428
Epoch Year2021
RAAN217.362
Inclination0.0161
Eccentricity0.0002448
Argument of Perigee339.2223
Mean Anonmoly289.4435
Mean Motion1.00271824
Decay Rate-3.64E-06
L11 43463U 18044A 21270.00248428 -.00000364 00000-0 00000+0 0 9990
L22 43463 0.0161 217.3620 0002448 339.2223 289.4435 1.00271824 12444

Live tracking and technical data element details for BANGABANDHUSAT-1 (NORAD 43463). BANGABANDHUSAT-1 can be tracked NOW for your location showing map with azimuth and elevation plus other details from your city location.

Track the satellite on the map from your city or location and see movement details for azimuth, elevation, latitude, longitude, range, height, and movement on the map or in text.







IsCatalogInMostPopularTable: catalog: 43463, numindb: 535
Update: records affected: 1



GetName: 43463 BANGABANDHUSAT-1

Hit Count: updated at: Tue, 28 Sep 2021 15:49:34 GMT